Truckee-Tahoe, CA

3:58 AM PDT on May 27, 2018 (GMT -0700)
Truckee-Tahoe

Weather History for KTRK - July, 2013

Change the Weather History Date:

Sunday, July 14, 2013

  Actual Average Record
Temperature  
Mean Temperature 58 °F -  
Max Temperature 80 °F 83 °F 100 °F (2007)
Min Temperature 35 °F 42 °F 32 °F (1966)
Degree Days  
Heating Degree Days 8    
Growing Degree Days 8 (Base 50)    
Moisture  
Dew Point 36 °F    
Average Humidity 52    
Maximum Humidity 87    
Minimum Humidity 18    
Precipitation  
Precipitation 0.00 in - - ()
Sea Level Pressure  
Sea Level Pressure 30.24 in    
Wind  
Wind Speed 3 mph (SW)    
Max Wind Speed 15 mph    
Max Gust Speed 23 mph    
Visibility 10 miles    
Events      
Averages and records for this station are not official NWS values.
T = Trace of Precipitation, MM = Missing Value Source: NWS Daily Summary

Daily Weather History Graph

Daily Weather History Graph

Search for Another Location

Airport or City:

Astronomy

Jul. 14, 2013 Rise Set
Actual Time 5:45 AM PDT 8:26 PM PDT
Civil Twilight 5:14 AM PDT 8:58 PM PDT
Nautical Twilight 4:35 AM PDT 9:37 PM PDT
Astronomical Twilight 3:50 AM PDT 10:21 PM PDT
Moon 12:05 PM PDT (7/14) 11:44 PM PDT (7/14)
Length of Visible Light 15h 43m
Length of Day
14h 40m
Waxing Crescent, 36% of the Moon is Illuminated
Jul 14
Waxing Crescent
Jul 15
First Quarter
Jul 22
Full
Jul 29
Last Quarter
Aug 6
New

Hourly Weather History & Observations

Time (PDT) Temp. Windchill Dew Point Humidity Pressure Visibility Wind Dir Wind Speed Gust Speed Precip Events Conditions
12:15 AM 53.6 °F - 35.6 °F 51% 30.26 in 10.0 mi Calm Calm - N/A   Clear
12:35 AM 48.2 °F - 35.6 °F 62% 30.26 in 10.0 mi Calm Calm - N/A   Clear
12:55 AM 48.2 °F - 37.4 °F 66% 30.26 in 10.0 mi Calm Calm - N/A   Clear
1:15 AM 46.4 °F 45.2 °F 35.6 °F 66% 30.26 in 10.0 mi SSW 3.5 mph - N/A   Clear
1:35 AM 44.6 °F - 33.8 °F 66% 30.26 in 10.0 mi Calm Calm - N/A   Clear
1:55 AM 48.2 °F - 33.8 °F 58% 30.27 in 10.0 mi ESE 3.5 mph - N/A   Clear
2:15 AM 44.6 °F 43.1 °F 35.6 °F 71% 30.27 in 10.0 mi SSW 3.5 mph - N/A   Clear
2:35 AM 44.6 °F - 35.6 °F 71% 30.27 in 10.0 mi Calm Calm - N/A   Clear
2:55 AM 44.6 °F - 35.6 °F 71% 30.27 in 10.0 mi Calm Calm - N/A   Clear
3:15 AM 44.6 °F - 35.6 °F 71% 30.27 in 10.0 mi Calm Calm - N/A   Clear
3:35 AM 44.6 °F 43.1 °F 35.6 °F 71% 30.27 in 10.0 mi ESE 3.5 mph - N/A   Clear
3:55 AM 39.2 °F - 33.8 °F 81% 30.27 in 10.0 mi Calm Calm - N/A   Clear
4:15 AM 41.0 °F - 35.6 °F 81% 30.27 in 10.0 mi Calm Calm - N/A   Clear
4:35 AM 41.0 °F - 35.6 °F 81% 30.27 in 10.0 mi Calm Calm - N/A   Clear
4:55 AM 41.0 °F - 35.6 °F 81% 30.27 in 10.0 mi Calm Calm - N/A   Clear
5:15 AM 39.2 °F - 35.6 °F 87% 30.27 in 10.0 mi Calm Calm - N/A   Clear
5:35 AM 35.6 °F 32.8 °F 32.0 °F 87% 30.28 in 10.0 mi South 3.5 mph - N/A   Clear
5:55 AM 39.2 °F - 35.6 °F 87% 30.28 in 10.0 mi Calm Calm - N/A   Clear
6:15 AM 39.2 °F - 35.6 °F 87% 30.28 in 10.0 mi Calm Calm - N/A   Clear
6:35 AM 39.2 °F - 33.8 °F 81% 30.28 in 10.0 mi Calm Calm - N/A   Clear
6:55 AM 44.6 °F - 35.6 °F 71% 30.28 in 10.0 mi Calm Calm - N/A   Clear
7:45 AM 50.0 °F - 35.6 °F 58% 30.28 in 10.0 mi Calm Calm - N/A   Clear
8:55 AM 57.2 °F - 37.4 °F 48% 30.28 in 10.0 mi Calm Calm - N/A   Clear
9:55 AM 66.2 °F - 39.2 °F 37% 30.26 in 10.0 mi North 5.8 mph - N/A   Clear
10:45 AM 73.4 °F - 35.6 °F 25% 30.25 in 10.0 mi Calm Calm - N/A   Clear
11:45 AM 78.8 °F - 32.0 °F 18% 30.24 in 10.0 mi South 15.0 mph 21.9 mph N/A   Partly Cloudy
12:55 PM 80.6 °F - 33.8 °F 18% 30.23 in 10.0 mi West 11.5 mph 16.1 mph N/A   Partly Cloudy
1:45 PM 80.6 °F - 33.8 °F 18% 30.22 in 10.0 mi WNW 10.4 mph - N/A   Partly Cloudy
2:50 PM 80.6 °F - 53.6 °F 39% 30.21 in 10.0 mi West 13.8 mph 20.7 mph N/A   Partly Cloudy
3:50 PM 80.6 °F - 37.4 °F 21% 30.20 in 10.0 mi SW 12.7 mph 23.0 mph N/A   Partly Cloudy
5:55 PM 78.8 °F - 35.6 °F 21% 30.18 in 10.0 mi SW 10.4 mph - N/A   Clear
6:15 PM 77.0 °F - 35.6 °F 22% 30.18 in 10.0 mi SW 11.5 mph - N/A   Clear
6:35 PM 77.0 °F - 35.6 °F 22% 30.18 in 10.0 mi West 9.2 mph - N/A   Clear
6:55 PM 77.0 °F - 35.6 °F 22% 30.18 in 10.0 mi SW 10.4 mph - N/A   Clear
7:15 PM 75.2 °F - 35.6 °F 24% 30.18 in 10.0 mi WSW 8.1 mph - N/A   Clear
7:35 PM 75.2 °F - 37.4 °F 25% 30.19 in 10.0 mi WNW 9.2 mph - N/A   Clear
7:55 PM 73.4 °F - 37.4 °F 27% 30.19 in 10.0 mi West 8.1 mph - N/A   Clear
8:15 PM 71.6 °F - 37.4 °F 29% 30.19 in 10.0 mi West 9.2 mph - N/A   Clear
8:35 PM 69.8 °F - 37.4 °F 31% 30.20 in 10.0 mi West 8.1 mph - N/A   Clear
8:55 PM 66.2 °F - 37.4 °F 35% 30.20 in 8.0 mi WSW 3.5 mph - N/A   Clear
9:15 PM 64.4 °F - 37.4 °F 37% 30.21 in 10.0 mi SSE 3.5 mph - N/A   Clear
9:35 PM 59.0 °F - 37.4 °F 45% 30.21 in 10.0 mi SSE 5.8 mph - N/A   Clear
9:55 PM 59.0 °F - 37.4 °F 45% 30.22 in 10.0 mi SSE 4.6 mph - N/A   Clear
10:15 PM 55.4 °F - 37.4 °F 51% 30.21 in 10.0 mi South 4.6 mph - N/A   Clear
10:35 PM 57.2 °F - 37.4 °F 48% 30.21 in 10.0 mi SE 3.5 mph - N/A   Clear
10:55 PM 53.6 °F - 37.4 °F 54% 30.21 in 10.0 mi Calm Calm - N/A   Clear
11:15 PM 55.4 °F - 39.2 °F 54% 30.21 in 10.0 mi Calm Calm - N/A   Clear
11:35 PM 53.6 °F - 39.2 °F 58% 30.21 in 10.0 mi SSW 3.5 mph - N/A   Clear
11:55 PM 53.6 °F - 39.2 °F 58% 30.21 in 10.0 mi Calm Calm - N/A   Clear